Tracking 18984 objects as of 23-Feb-2018
HD Live streaming from Space Station
objects crossing your sky now

TRANSIT 13 DEB

Track TRANSIT 13 DEB now!
10-day predictions


NORAD ID: 42667
Int'l Code: 1966-041J
Perigee: 762.2 km
Apogee: 822.6 km
Inclination: 90.1 °
Period: 100.6 minutes
Semi major axis: 7163 km
RCS: Unknown
Launch date: May 19, 1966
Source: United States (US)
Launch site: AIR FORCE WESTERN TEST RANGE (AFWTR)

Note: This is SATELLITE DEBRIS
aabbcc
Your satellite tracking list
Your tracking list is empty




NASA's NSSDC Master Catalog

Two Line Element Set (TLE):
1 42667U 66041J   18053.33400782 +.00006594 +00000-0 +24330-2 0  9994
2 42667 090.1364 020.5471 0042219 248.7738 110.8946 14.31936051171164
Source of the keplerian elements: AFSPC